Weather History for Grand Canyon, AZ

Change the Weather History Date:

Sunday, November 4, 2012

  Actual Average Record
Temperature  
Mean Temperature 44 °F -  
Max Temperature 66 °F 52 °F 69 °F (1977)
Min Temperature 21 °F 23 °F 15 °F (1990)
Degree Days  
Heating Degree Days 22    
Moisture  
Dew Point 12 °F    
Average Humidity 37    
Maximum Humidity 66    
Minimum Humidity 11    
Precipitation  
Precipitation 0.00 in - - ()
Sea Level Pressure  
Sea Level Pressure 30.30 in    
Wind  
Wind Speed 1 mph (NE)    
Max Wind Speed 9 mph    
Max Gust Speed -    
Visibility 10 miles    
Events      
Averages and records for this station are not official NWS values.
T = Trace of Precipitation, MM = Missing Value Source: NWS Daily Summary

Daily Weather History Graph

Daily Weather History Graph

Search for Another Location

Airport:

Trip Planner

Search our weather history database for the weather conditions in past years. The results will help you decide how hot, cold, wet, or windy it might be!

Date:

Astronomy

Nov. 04, 2012 Rise Set
Actual Time 6:54 AM MST 5:29 PM MST
Civil Twilight 6:27 AM MST 5:56 PM MST
Nautical Twilight 5:57 AM MST 6:26 PM MST
Astronomical Twilight 5:27 AM MST 6:56 PM MST
Moon 10:12 PM MST (11/4) 11:38 AM MST (11/4)
Length of Visible Light 11h 28m
Length of Day
10h 34m
Waning Gibbous, 71% of the Moon is Illuminated
Nov 4
Waning Gibbous
Nov 6
Last Quarter
Nov 13
New
Nov 20
First Quarter
Nov 28
Full

Hourly Weather History & Observations

Time (MST) Temp. Windchill Dew Point Humidity Pressure Visibility Wind Dir Wind Speed Gust Speed Precip Events Conditions
12:54 AM 26.1 °F - 12.9 °F 58% 30.23 in 10.0 mi Calm Calm - N/A   Clear
1:54 AM 25.0 °F - 14.0 °F 63% 30.24 in 10.0 mi Calm Calm - N/A   Clear
2:54 AM 25.0 °F - 14.0 °F 63% 30.24 in 10.0 mi Calm Calm - N/A   Clear
3:54 AM 24.1 °F - 12.9 °F 62% 30.25 in 10.0 mi Calm Calm - N/A   Clear
4:54 AM 23.0 °F - 12.9 °F 65% 30.27 in 10.0 mi Calm Calm - N/A   Clear
5:54 AM 21.9 °F - 12.0 °F 66% 30.34 in 10.0 mi Calm Calm - N/A   Clear
6:54 AM 21.9 °F - 12.0 °F 66% 30.39 in 10.0 mi Calm Calm - N/A   Clear
7:54 AM 28.9 °F - 16.0 °F 58% 30.39 in 10.0 mi Calm Calm - N/A   Clear
8:54 AM 48.0 °F - 19.9 °F 33% 30.32 in 10.0 mi Calm Calm - N/A   Clear
9:54 AM 59.0 °F - 16.0 °F 19% 30.30 in 10.0 mi Calm Calm - N/A   Clear
10:54 AM 63.0 °F - 15.1 °F 16% 30.29 in 10.0 mi Calm Calm - N/A   Clear
11:54 AM 64.0 °F - 15.1 °F 15% 30.27 in 10.0 mi Calm Calm - N/A   Clear
12:54 PM 66.9 °F - 12.0 °F 12% 30.23 in 10.0 mi Variable 4.6 mph - N/A   Clear
1:54 PM 66.9 °F - 12.0 °F 12% 30.23 in 10.0 mi Variable 5.8 mph - N/A   Clear
2:54 PM 66.9 °F - 10.9 °F 11% 30.23 in 10.0 mi North 8.1 mph - N/A   Clear
3:54 PM 64.9 °F - 8.1 °F 11% 30.25 in 10.0 mi NE 8.1 mph - N/A   Clear
4:54 PM 61.0 °F - 12.0 °F 15% 30.29 in 10.0 mi NE 9.2 mph - N/A   Clear
5:54 PM 45.0 °F - 10.0 °F 24% 30.37 in 10.0 mi Calm Calm - N/A   Clear
6:54 PM 36.0 °F - 8.1 °F 31% 30.43 in 10.0 mi Calm Calm - N/A   Clear
7:54 PM 36.0 °F - 10.0 °F 34% 30.39 in 10.0 mi Calm Calm - N/A   Clear
8:54 PM 33.1 °F 30.0 °F 9.0 °F 37% 30.33 in 10.0 mi NE 3.5 mph - N/A   Clear
9:54 PM 34.0 °F 27.2 °F 10.9 °F 38% 30.30 in 10.0 mi NE 8.1 mph - N/A   Clear
10:54 PM 32.0 °F 27.5 °F 10.9 °F 42% 30.29 in 10.0 mi ENE 4.6 mph - N/A   Clear
11:54 PM 28.0 °F 22.8 °F 8.1 °F 43% 30.30 in 10.0 mi NE 4.6 mph - N/A   Clear